カタログに戻る

COSMOS 1506

運用中軍事PO
NORAD 14450·PAYLOAD·🇷🇺 Russia

打ち上げ Oct 26, 1983 から Plesetsk Cosmodrome

Loading…

次のパス (今後24時間)

TLE

最新Source: Space-Track

元期: Sep 14, 2026, 15:37 UTC

1 14450U 83108A   26257.65089206  .00000058  00000-0  42475-4 0  9991
2 14450  82.9319 205.0002 0044167 110.3512  63.6193 13.76547866969962

AllMySatでCOSMOS 1506をリアルタイム追跡

Download on the App Store